User: anonymous   Login
Location: Gro� Glienicke
(52.4675°N, 13.1079°E)
Time: 07:30:40
(UTC+00:00)
Language:

Meteor 2-2 Rocket - Orbit

View from above orbital plane
View from above orbital plane
View from above satellite
View from above satellite

Ground track
Ground track

The orbit data is extracted from the following two-line orbital elements,

1  9662U 77002B   20273.83116405 -.00000047 +00000-0 -39135-4 0  9999
2  9662 081.2789 006.5287 0051418 323.0692 036.6937 14.00942443234477
Epoch (UTC): 29 September 2020 19:56:52
Eccentricity: 0.0051418
inclination: 81.2789°
perigee height: 853 km
apogee height: 928 km
right ascension of ascending node: 6.5287°
argument of perigee: 323.0692°
revolutions per day: 14.00942443
mean anomaly at epoch: 36.6937°
orbit number at epoch: 23447

The dashed part of the orbit path shows where the satellite is in the earth's shadow,  

DLR